International Falls, MN

1:35 AM CDT on October 17, 2017 (GMT -0500)
Falls International

Weather History for KINL - October, 2011

Change the Weather History Date:

Saturday, October 8, 2011

  Actual Average Record
Temperature  
Mean Temperature 58 °F 44 °F  
Max Temperature 69 °F 55 °F 78 °F (2003)
Min Temperature 47 °F 34 °F 20 °F (2000)
Degree Days  
Heating Degree Days 7 21  
Month to date heating degree days 38 155  
Since 1 July heating degree days 510 689  
Cooling Degree Days 0 0  
Month to date cooling degree days 7 0  
Year to date cooling degree days 207 192  
Growing Degree Days 10 (Base 50)    
Moisture  
Dew Point 48 °F    
Average Humidity 66    
Maximum Humidity 83    
Minimum Humidity 48    
Precipitation  
Precipitation T in 0.08 in 0.66 in (1997)
Month to date precipitation 0.06 0.64  
Year to date precipitation 17.29 20.59  
Snow  
Snow 0.00 in 0.00 in 2.20 in (1976)
Month to date snowfall 0.0 0.2  
Since 1 July snowfall T 0.3  
Since 1 September snowfall T 0.3  
Snow Depth 0.00 in    
Sea Level Pressure  
Sea Level Pressure 29.93 in    
Wind  
Wind Speed 10 mph (WSW)    
Max Wind Speed 21 mph    
Max Gust Speed 26 mph    
Visibility 10 miles    
Events Rain    
T = Trace of Precipitation, MM = Missing Value Source: NWS Daily Summary

Daily Weather History Graph

Daily Weather History Graph

Search for Another Location

Airport or City:

Trip Planner

Search our weather history database for the weather conditions in past years. The results will help you decide how hot, cold, wet, or windy it might be!

Date:

Astronomy

Oct. 08, 2011 Rise Set
Actual Time 7:22 AM CDT 6:38 PM CDT
Civil Twilight 6:51 AM CDT 7:09 PM CDT
Nautical Twilight 6:15 AM CDT 7:46 PM CDT
Astronomical Twilight 5:38 AM CDT 8:22 PM CDT
Moon 4:59 PM CDT (10/8) 3:57 AM CDT (10/8)
Length of Visible Light 12h 18m
Length of Day
11h 15m
Waxing Gibbous, 90% of the Moon is Illuminated
Oct 8
Waxing Gibbous
Oct 11
Full
Oct 19
Last Quarter
Oct 26
New
Nov 2
First Quarter

Hourly Weather History & Observations

Time (CDT) Temp. Dew Point Humidity Pressure Visibility Wind Dir Wind Speed Gust Speed Precip Events Conditions
12:55 AM 64.9 °F 57.9 °F 78% 29.70 in 10.0 mi SSW 8.1 mph 16.1 mph N/A   Clear
1:55 AM 64.0 °F 55.0 °F 73% 29.70 in 10.0 mi South 9.2 mph 18.4 mph N/A   Clear
2:55 AM 62.1 °F 52.0 °F 70% 29.73 in 10.0 mi SSW 11.5 mph 19.6 mph N/A   Clear
3:55 AM 61.0 °F 48.9 °F 64% 29.75 in 10.0 mi SSW 11.5 mph - N/A   Clear
4:55 AM 59.0 °F 46.0 °F 62% 29.77 in 10.0 mi SSW 10.4 mph 16.1 mph N/A   Clear
5:55 AM 57.9 °F 45.0 °F 62% 29.80 in 10.0 mi SW 9.2 mph - N/A   Clear
6:55 AM 55.9 °F 44.1 °F 64% 29.83 in 10.0 mi SW 8.1 mph - N/A   Clear
7:55 AM 55.9 °F 44.1 °F 64% 29.85 in 10.0 mi SW 8.1 mph - N/A   Clear
8:55 AM 59.0 °F 45.0 °F 60% 29.88 in 10.0 mi SW 8.1 mph 16.1 mph N/A   Clear
9:55 AM 61.0 °F 46.9 °F 60% 29.91 in 10.0 mi SW 15.0 mph 25.3 mph N/A   Clear
10:55 AM 62.1 °F 48.0 °F 60% 29.93 in 10.0 mi WSW 15.0 mph 24.2 mph N/A   Clear
11:55 AM 63.0 °F 48.0 °F 58% 29.93 in 10.0 mi WSW 12.7 mph 21.9 mph N/A   Partly Cloudy
12:55 PM 66.0 °F 48.0 °F 52% 29.94 in 10.0 mi WSW 16.1 mph 23.0 mph N/A   Overcast
1:55 PM 66.9 °F 46.9 °F 49% 29.94 in 10.0 mi WSW 15.0 mph 26.5 mph N/A   Mostly Cloudy
2:55 PM 66.9 °F 46.9 °F 49% 29.96 in 10.0 mi WSW 16.1 mph 24.2 mph N/A   Scattered Clouds
3:55 PM 66.9 °F 46.9 °F 49% 29.98 in 10.0 mi West 11.5 mph 20.7 mph N/A   Overcast
4:55 PM 64.9 °F 46.9 °F 52% 30.00 in 10.0 mi West 15.0 mph 18.4 mph N/A   Overcast
5:55 PM 64.0 °F 46.0 °F 52% 30.02 in 10.0 mi West 11.5 mph 16.1 mph N/A   Overcast
6:55 PM 62.1 °F 46.9 °F 58% 30.06 in 10.0 mi West 8.1 mph - N/A   Overcast
7:55 PM 60.1 °F 46.9 °F 62% 30.09 in 10.0 mi WNW 6.9 mph - N/A   Overcast
8:55 PM 57.0 °F 46.9 °F 69% 30.10 in 10.0 mi WNW 4.6 mph - 0.00 in Rain Light Rain
9:55 PM 55.9 °F 48.0 °F 75% 30.12 in 10.0 mi NW 6.9 mph - 0.00 in Rain Light Rain
10:55 PM 54.0 °F 48.0 °F 80% 30.14 in 10.0 mi NW 3.5 mph - 0.00 in   Overcast
11:55 PM 54.0 °F 48.0 °F 80% 30.15 in 10.0 mi Calm Calm - N/A   Overcast